TimeCST,TemperatureF,Dew PointF,Humidity,Sea Level PressureIn,VisibilityMPH,Wind Direction,Wind SpeedMPH,Gust SpeedMPH,PrecipitationIn,Events,Conditions,WindDirDegrees,DateUTC
12:15 AM,35.2,35.2,100,29.88,3.0,NW,18.4,25.3,0.02,Snow,Light Snow,320,2013-01-13 06:15:00
12:35 AM,35.1,35.1,100,29.87,4.0,North,23.0,26.5,0.03,Snow,Snow,350,2013-01-13 06:35:00
12:55 AM,35.1,35.1,100,29.90,5.0,NW,16.1,-,0.03,Rain,Rain,320,2013-01-13 06:55:00
1:15 AM,34.7,34.7,100,29.90,4.0,NNW,12.7,24.2,0.01,Snow,Light Snow,340,2013-01-13 07:15:00
1:35 AM,34.9,34.9,100,29.89,5.0,North,13.8,24.2,0.01,Snow,Light Snow,350,2013-01-13 07:35:00
1:55 AM,35.1,35.1,100,29.91,10.0,North,12.7,-,0.01,,Overcast,360,2013-01-13 07:55:00
2:15 AM,35.2,34.9,99,29.89,7.0,NNE,9.2,-,N/A,Rain,Rain,30,2013-01-13 08:15:00
2:35 AM,35.1,34.9,99,29.94,7.0,North,9.2,-,N/A,Rain,Light Rain,350,2013-01-13 08:35:00
2:55 AM,35.1,34.9,99,29.92,10.0,North,10.4,-,N/A,,Overcast,360,2013-01-13 08:55:00
3:15 AM,35.1,34.9,99,29.92,10.0,North,10.4,-,N/A,,Overcast,360,2013-01-13 09:15:00
3:35 AM,35.1,35.1,100,29.93,10.0,North,9.2,-,N/A,,Overcast,350,2013-01-13 09:35:00
3:55 AM,35.6,35.6,100,29.94,10.0,NNW,9.2,-,N/A,,Overcast,340,2013-01-13 09:55:00
4:15 AM,35.1,34.9,99,29.95,10.0,NW,9.2,-,N/A,,Overcast,320,2013-01-13 10:15:00
4:35 AM,34.7,34.7,100,29.96,10.0,NNW,13.8,-,N/A,,Overcast,330,2013-01-13 10:35:00
4:55 AM,34.2,34.2,100,29.94,10.0,NNW,15.0,-,N/A,,Overcast,340,2013-01-13 10:55:00
5:15 AM,33.8,33.8,100,29.93,10.0,NNW,13.8,-,N/A,,Overcast,340,2013-01-13 11:15:00
5:35 AM,33.6,33.6,100,29.95,10.0,NNW,11.5,-,N/A,,Overcast,340,2013-01-13 11:35:00
5:55 AM,33.8,33.6,99,29.98,10.0,NW,13.8,-,N/A,,Overcast,320,2013-01-13 11:55:00
6:15 AM,33.4,33.3,99,29.98,10.0,NNW,11.5,-,N/A,,Overcast,330,2013-01-13 12:15:00
6:35 AM,33.3,33.1,99,30.00,10.0,NNW,15.0,-,N/A,,Overcast,330,2013-01-13 12:35:00
6:55 AM,32.5,32.5,100,29.99,10.0,NNW,15.0,-,N/A,,Overcast,340,2013-01-13 12:55:00
7:15 AM,32.0,32.0,100,30.02,10.0,NW,12.7,-,N/A,,Overcast,310,2013-01-13 13:15:00
7:35 AM,32.0,32.0,100,30.00,7.0,NNW,13.8,17.3,N/A,,Overcast,340,2013-01-13 13:35:00
7:55 AM,32.0,31.8,99,30.00,7.0,NW,15.0,-,N/A,,Overcast,320,2013-01-13 13:55:00
8:15 AM,31.6,31.5,99,30.05,7.0,NW,13.8,-,N/A,,Overcast,310,2013-01-13 14:15:00
8:35 AM,30.9,30.4,98,30.06,5.0,NW,13.8,-,N/A,,Overcast,310,2013-01-13 14:35:00
8:55 AM,30.2,30.0,99,30.06,5.0,NW,13.8,-,N/A,,Overcast,320,2013-01-13 14:55:00
9:15 AM,29.8,29.7,99,30.03,5.0,NNW,17.3,-,N/A,,Overcast,340,2013-01-13 15:15:00
9:35 AM,30.0,29.7,99,30.01,5.0,North,12.7,19.6,N/A,,Overcast,350,2013-01-13 15:35:00
9:55 AM,30.0,29.8,99,30.01,5.0,NNW,15.0,-,N/A,,Overcast,340,2013-01-13 15:55:00
10:15 AM,29.8,29.7,99,29.99,5.0,NNW,13.8,19.6,N/A,,Overcast,340,2013-01-13 16:15:00
10:35 AM,30.0,29.3,97,30.04,5.0,NW,9.2,-,N/A,,Overcast,310,2013-01-13 16:35:00
10:55 AM,30.2,29.3,96,30.06,5.0,WNW,13.8,-,N/A,,Overcast,300,2013-01-13 16:55:00
11:15 AM,30.2,29.8,99,30.06,1.2,WNW,19.6,23.0,N/A,,Overcast,300,2013-01-13 17:15:00
11:35 AM,30.2,30.2,100,30.07,1.2,WNW,10.4,23.0,N/A,Snow,Light Snow,300,2013-01-13 17:35:00
11:55 AM,29.5,29.1,99,30.04,2.0,NW,15.0,19.6,0.01,Snow,Light Snow,320,2013-01-13 17:55:00
12:15 PM,28.9,27.1,93,30.00,4.0,NNW,18.4,-,N/A,Snow,Light Snow,330,2013-01-13 18:15:00
12:35 PM,28.4,26.1,91,30.03,4.0,NW,12.7,23.0,N/A,,Overcast,320,2013-01-13 18:35:00
12:55 PM,28.4,26.1,91,30.04,4.0,NW,15.0,18.4,N/A,,Overcast,320,2013-01-13 18:55:00
1:15 PM,28.4,25.9,90,30.04,10.0,NW,12.7,18.4,N/A,,Overcast,320,2013-01-13 19:15:00
1:35 PM,28.0,25.5,90,30.03,10.0,NNW,13.8,-,N/A,,Overcast,330,2013-01-13 19:35:00
1:55 PM,27.9,25.2,90,30.04,10.0,NNW,16.1,-,N/A,,Overcast,340,2013-01-13 19:55:00
2:15 PM,27.9,25.2,90,30.07,10.0,NNW,13.8,-,N/A,,Overcast,330,2013-01-13 20:15:00
2:35 PM,28.0,25.3,90,30.08,10.0,NW,13.8,-,N/A,,Overcast,320,2013-01-13 20:35:00
2:55 PM,28.0,24.8,88,30.12,10.0,NNW,13.8,-,N/A,,Overcast,330,2013-01-13 20:55:00
3:15 PM,28.4,25.3,88,30.13,10.0,NW,13.8,-,N/A,,Overcast,310,2013-01-13 21:15:00
3:35 PM,28.2,25.5,90,30.14,10.0,NW,11.5,-,N/A,,Overcast,320,2013-01-13 21:35:00
3:55 PM,27.7,24.4,88,30.16,10.0,NNW,13.8,-,N/A,,Overcast,330,2013-01-13 21:55:00
4:15 PM,27.7,24.1,86,30.17,10.0,WNW,13.8,17.3,N/A,,Overcast,300,2013-01-13 22:15:00
4:35 PM,27.5,23.9,86,30.18,10.0,NW,12.7,17.3,N/A,,Overcast,310,2013-01-13 22:35:00
4:55 PM,27.7,24.3,87,30.18,10.0,NW,11.5,-,N/A,,Overcast,310,2013-01-13 22:55:00
5:15 PM,27.3,23.5,86,30.19,10.0,WNW,13.8,-,N/A,,Overcast,300,2013-01-13 23:15:00
5:35 PM,27.1,23.7,87,30.21,10.0,NW,10.4,-,N/A,,Overcast,310,2013-01-13 23:35:00
5:55 PM,26.6,22.1,83,30.22,10.0,NW,11.5,18.4,N/A,,Overcast,310,2013-01-13 23:55:00
6:15 PM,26.6,22.1,83,30.23,10.0,NW,11.5,-,N/A,,Overcast,310,2013-01-14 00:15:00
6:35 PM,26.6,22.1,83,30.23,10.0,NW,12.7,18.4,N/A,,Overcast,320,2013-01-14 00:35:00
6:55 PM,26.4,21.6,82,30.23,10.0,NW,13.8,-,N/A,,Overcast,310,2013-01-14 00:55:00
7:15 PM,26.2,21.4,82,30.24,10.0,NNW,15.0,23.0,N/A,,Mostly Cloudy,330,2013-01-14 01:15:00
7:35 PM,25.7,21.0,82,30.24,10.0,NW,13.8,20.7,N/A,,Overcast,310,2013-01-14 01:35:00
7:55 PM,25.5,20.7,82,30.24,10.0,NW,12.7,21.9,N/A,,Overcast,310,2013-01-14 01:55:00
8:15 PM,25.5,20.7,82,30.25,10.0,NW,11.5,-,N/A,,Overcast,320,2013-01-14 02:15:00
8:35 PM,25.3,20.8,83,30.26,10.0,NW,11.5,17.3,N/A,,Overcast,310,2013-01-14 02:35:00
8:55 PM,25.2,20.3,82,30.27,10.0,NW,10.4,-,N/A,,Overcast,310,2013-01-14 02:55:00
9:15 PM,24.6,20.1,83,30.28,10.0,NW,9.2,-,N/A,,Scattered Clouds,310,2013-01-14 03:15:00
9:35 PM,24.6,20.3,84,30.28,10.0,NW,8.1,-,N/A,,Clear,310,2013-01-14 03:35:00
9:55 PM,24.6,19.9,82,30.29,10.0,NNW,11.5,-,N/A,,Clear,340,2013-01-14 03:55:00
10:35 PM,24.8,17.6,74,30.32,10.0,NW,10.4,-,N/A,,Clear,320,2013-01-14 04:35:00
10:55 PM,23.9,18.1,79,30.33,10.0,NNW,9.2,-,N/A,,Clear,330,2013-01-14 04:55:00
11:15 PM,23.0,17.6,80,30.33,10.0,NNW,10.4,-,N/A,,Clear,330,2013-01-14 05:15:00
11:35 PM,23.4,16.7,76,30.34,10.0,NNW,6.9,-,N/A,,Clear,340,2013-01-14 05:35:00
11:55 PM,23.0,17.6,80,30.34,10.0,NNW,5.8,-,N/A,,Clear,330,2013-01-14 05:55:00